TimeEST,TemperatureF,Dew PointF,Humidity,Sea Level PressureIn,VisibilityMPH,Wind Direction,Wind SpeedMPH,Gust SpeedMPH,PrecipitationIn,Events,Conditions,WindDirDegrees,DateUTC
12:15 AM,62.6,53.6,72,30.21,10.0,NE,5.8,-,N/A,,Clear,50,2012-12-05 05:15:00
12:35 AM,60.8,53.6,77,30.20,10.0,NE,6.9,-,N/A,,Clear,40,2012-12-05 05:35:00
12:55 AM,60.8,53.6,77,30.20,10.0,NE,6.9,-,N/A,,Clear,40,2012-12-05 05:55:00
1:15 AM,60.8,53.6,77,30.19,10.0,NE,8.1,-,N/A,,Scattered Clouds,50,2012-12-05 06:15:00
1:35 AM,60.8,53.6,77,30.19,10.0,NE,8.1,-,N/A,,Mostly Cloudy,40,2012-12-05 06:35:00
1:55 AM,60.8,55.4,82,30.18,10.0,NE,6.9,-,N/A,,Overcast,50,2012-12-05 06:55:00
2:15 AM,60.8,53.6,77,30.17,10.0,NE,4.6,-,N/A,,Scattered Clouds,40,2012-12-05 07:15:00
2:55 AM,60.8,53.6,77,30.17,10.0,ENE,5.8,-,N/A,,Overcast,60,2012-12-05 07:55:00
3:15 AM,60.8,53.6,77,30.17,10.0,NE,5.8,-,N/A,,Mostly Cloudy,50,2012-12-05 08:15:00
3:35 AM,59.0,53.6,82,30.17,10.0,NE,6.9,-,N/A,,Scattered Clouds,50,2012-12-05 08:35:00
3:55 AM,59.0,53.6,82,30.16,10.0,NE,6.9,-,N/A,,Clear,40,2012-12-05 08:55:00
4:15 AM,59.0,53.6,82,30.16,10.0,NE,6.9,-,N/A,,Clear,50,2012-12-05 09:15:00
4:35 AM,59.0,53.6,82,30.15,10.0,NE,6.9,-,N/A,,Clear,50,2012-12-05 09:35:00
4:55 AM,59.0,53.6,82,30.15,10.0,NE,6.9,-,N/A,,Clear,40,2012-12-05 09:55:00
5:15 AM,59.0,53.6,82,30.15,10.0,NE,6.9,-,N/A,,Clear,40,2012-12-05 10:15:00
5:35 AM,59.0,53.6,82,30.15,10.0,NE,6.9,-,N/A,,Clear,50,2012-12-05 10:35:00
5:55 AM,59.0,53.6,82,30.15,10.0,NE,5.8,-,N/A,,Clear,50,2012-12-05 10:55:00
6:15 AM,57.2,53.6,88,30.16,10.0,NE,5.8,-,N/A,,Clear,50,2012-12-05 11:15:00
6:35 AM,57.2,53.6,88,30.15,10.0,NE,4.6,-,N/A,,Clear,50,2012-12-05 11:35:00
6:55 AM,59.0,53.6,82,30.16,10.0,Calm,Calm,-,N/A,,Clear,0,2012-12-05 11:55:00
7:15 AM,59.0,53.6,82,30.17,10.0,Calm,Calm,-,N/A,,Clear,0,2012-12-05 12:15:00
7:35 AM,59.0,53.6,82,30.17,10.0,NE,3.5,-,N/A,,Clear,50,2012-12-05 12:35:00
7:55 AM,60.8,53.6,77,30.18,10.0,NE,3.5,-,N/A,,Clear,50,2012-12-05 12:55:00
9:35 AM,69.8,59.0,68,30.19,10.0,ENE,6.9,-,N/A,,Clear,70,2012-12-05 14:35:00
9:55 AM,71.6,59.0,64,30.19,10.0,ENE,5.8,-,N/A,,Clear,70,2012-12-05 14:55:00
10:15 AM,71.6,60.8,69,30.19,10.0,ENE,5.8,-,N/A,,Clear,70,2012-12-05 15:15:00
10:35 AM,73.4,60.8,65,30.19,10.0,East,5.8,-,N/A,,Clear,80,2012-12-05 15:35:00
10:55 AM,75.2,59.0,57,30.18,10.0,ENE,5.8,-,N/A,,Clear,60,2012-12-05 15:55:00
11:15 AM,77.0,59.0,54,30.17,10.0,ENE,4.6,-,N/A,,Clear,70,2012-12-05 16:15:00
11:35 AM,77.0,57.2,50,30.16,10.0,ENE,5.8,-,N/A,,Clear,70,2012-12-05 16:35:00
11:55 AM,77.0,57.2,50,30.15,10.0,ENE,3.5,-,N/A,,Mostly Cloudy,60,2012-12-05 16:55:00
12:15 PM,78.8,53.6,42,30.14,10.0,Calm,Calm,-,N/A,,Scattered Clouds,0,2012-12-05 17:15:00
12:35 PM,78.8,53.6,42,30.13,10.0,Calm,Calm,-,N/A,,Scattered Clouds,0,2012-12-05 17:35:00
12:55 PM,77.0,55.4,47,30.11,10.0,West,5.8,-,N/A,,Clear,280,2012-12-05 17:55:00
1:15 PM,77.0,53.6,44,30.10,10.0,WSW,4.6,-,N/A,,Clear,250,2012-12-05 18:15:00
1:35 PM,77.0,53.6,44,30.09,10.0,Calm,Calm,-,N/A,,Clear,0,2012-12-05 18:35:00
1:55 PM,77.0,53.6,44,30.08,10.0,SSW,4.6,-,N/A,,Scattered Clouds,210,2012-12-05 18:55:00
2:15 PM,78.8,51.8,39,30.07,10.0,Calm,Calm,-,N/A,,Scattered Clouds,0,2012-12-05 19:15:00
2:35 PM,78.8,51.8,39,30.06,10.0,ENE,3.5,-,N/A,,Scattered Clouds,70,2012-12-05 19:35:00
2:55 PM,80.6,53.6,39,30.06,10.0,ENE,6.9,-,N/A,,Scattered Clouds,60,2012-12-05 19:55:00
3:15 PM,78.8,51.8,39,30.05,1.2,Calm,Calm,-,N/A,,Haze,0,2012-12-05 20:15:00
3:35 PM,78.8,51.8,39,30.05,10.0,East,4.6,-,N/A,,Scattered Clouds,80,2012-12-05 20:35:00
3:55 PM,77.0,53.6,44,30.05,10.0,Calm,Calm,-,N/A,,Mostly Cloudy,0,2012-12-05 20:55:00
4:15 PM,77.0,53.6,44,30.05,10.0,Calm,Calm,-,N/A,,Mostly Cloudy,0,2012-12-05 21:15:00
4:35 PM,73.4,55.4,53,30.05,10.0,West,3.5,-,N/A,,Overcast,280,2012-12-05 21:35:00
4:55 PM,73.4,55.4,53,30.05,10.0,WNW,3.5,-,N/A,,Overcast,300,2012-12-05 21:55:00
5:15 PM,73.4,57.2,57,30.05,10.0,Calm,Calm,-,N/A,,Mostly Cloudy,0,2012-12-05 22:15:00
5:35 PM,71.6,59.0,64,30.05,10.0,Calm,Calm,-,N/A,,Mostly Cloudy,0,2012-12-05 22:35:00
5:55 PM,71.6,59.0,64,30.05,10.0,Calm,Calm,-,N/A,,Overcast,0,2012-12-05 22:55:00
6:15 PM,71.6,57.2,60,30.05,10.0,Calm,Calm,-,N/A,,Overcast,0,2012-12-05 23:15:00
6:35 PM,71.6,55.4,57,30.06,10.0,Calm,Calm,-,N/A,,Mostly Cloudy,0,2012-12-05 23:35:00
6:55 PM,71.6,55.4,57,30.06,10.0,NW,4.6,-,N/A,,Mostly Cloudy,310,2012-12-05 23:55:00
7:15 PM,71.6,55.4,57,30.06,10.0,NNW,3.5,-,N/A,,Overcast,330,2012-12-06 00:15:00
7:35 PM,69.8,55.4,60,30.07,10.0,North,3.5,-,N/A,,Overcast,350,2012-12-06 00:35:00
7:55 PM,69.8,55.4,60,30.06,10.0,North,3.5,-,N/A,,Overcast,350,2012-12-06 00:55:00
8:15 PM,69.8,55.4,60,30.07,10.0,NE,8.1,-,N/A,,Overcast,40,2012-12-06 01:15:00
8:35 PM,69.8,59.0,68,30.07,10.0,NE,13.8,-,N/A,,Mostly Cloudy,40,2012-12-06 01:35:00
8:55 PM,69.8,59.0,68,30.07,10.0,NE,11.5,18.4,N/A,,Overcast,50,2012-12-06 01:55:00
9:15 PM,68.0,60.8,78,30.07,10.0,ENE,10.4,-,N/A,,Mostly Cloudy,60,2012-12-06 02:15:00
9:35 PM,68.0,60.8,78,30.07,10.0,NE,11.5,-,N/A,,Mostly Cloudy,50,2012-12-06 02:35:00
9:55 PM,68.0,60.8,78,30.07,10.0,NE,9.2,-,N/A,,Mostly Cloudy,50,2012-12-06 02:55:00
10:15 PM,66.2,60.8,83,30.07,10.0,ENE,6.9,-,N/A,,Scattered Clouds,60,2012-12-06 03:15:00
10:35 PM,66.2,60.8,83,30.07,10.0,ENE,6.9,-,N/A,,Scattered Clouds,60,2012-12-06 03:35:00